STARLINK X

Last updated on June 19, 2020, 12:02 a.m. UTC

1 45751U 20038X   20170.75001157  .00112169  11274-4  13946-3 0  9996
2 45751  52.9996 271.8088 0111485  69.5798 147.0827 15.96117360  2136

Satellite is not in orbit.